Back to catalog

COSMOS 1275 DEB

AlivePO
NORAD 12671·DEBRIS·🇷🇺 Russia

Launched Jun 4, 1981 from Plesetsk Cosmodrome

Loading…

Next Passes (next 24 hours)

TLE

FreshSource: Space-Track

Epoch: Sep 14, 2026, 01:27 UTC

1 12671U 81053AB  26257.06086373  .00001380  00000-0  74205-3 0  9992
2 12671  82.9049 118.8515 0021642 359.3857   0.7289 14.12118998292390

Track COSMOS 1275 DEB in real time with AllMySat

Download on the App Store